| time (UTC) | temp F | wind direction | speed knots | gust knots | rain 1hr in | rain 24hr in | rain mn in | humidity % | barometer mb |
| 20260902024517 | 67 | 74 | 5.2 | 7.0 | 0.00 | 0.00 | 0.00 | 71 | 1024.4 |
| 20260902023020 | 66 | 77 | 6.1 | 7.0 | 0.00 | 0.00 | 0.00 | 76 | 1024.2 |
| 20260902021532 | 66 | 81 | 4.3 | 6.1 | 0.00 | 0.00 | 0.00 | 80 | 1024.2 |
| 20260902020017 | 66 | 63 | 5.2 | 7.8 | 0.00 | 0.00 | 0.00 | 79 | 1024.2 |
| 20260902014531 | 68 | 78 | 7.0 | 7.8 | 0.00 | 0.00 | 0.00 | 74 | 1024.0 |
| 20260902013019 | 69 | 50 | 6.1 | 8.7 | 0.00 | 0.00 | 0.00 | 69 | 1023.8 |
| 20260902011510 | 71 | 53 | 5.2 | 9.6 | 0.00 | 0.00 | 0.00 | 68 | 1023.5 |
| 20260902010015 | 72 | 55 | 7.0 | 9.6 | 0.00 | 0.00 | 0.00 | 66 | 1023.5 |
| 20260902004508 | 73 | 70 | 7.8 | 14.8 | 0.00 | 0.00 | 0.00 | 58 | 1023.6 |
| 20260902003003 | 74 | 84 | 7.0 | 10.4 | 0.00 | 0.00 | 0.00 | 57 | 1023.6 |
| 20260902001503 | 74 | 103 | 7.8 | 14.8 | 0.00 | 0.00 | 0.00 | 56 | 1023.6 |
| 20260902000006 | 75 | 99 | 4.3 | 7.8 | 0.00 | 0.00 | 0.00 | 56 | 1023.8 |
| 20260901234514 | 75 | 65 | 5.2 | 7.8 | 0.00 | 0.00 | 0.00 | 57 | 1023.5 |
| 20260901233021 | 74 | 70 | 4.3 | 9.6 | 0.00 | 0.00 | 0.00 | 62 | 1023.4 |
| 20260901231511 | 77 | 110 | 15.6 | 22.6 | 0.00 | 0.00 | 0.00 | 50 | 1023.5 |
| 20260901230006 | 79 | 84 | 7.8 | 13.9 | 0.00 | 0.00 | 0.00 | 44 | 1023.5 |
| 20260901224504 | 79 | 60 | 11.3 | 14.8 | 0.00 | 0.00 | 0.00 | 44 | 1023.6 |
| 20260901223004 | 79 | 61 | 9.6 | 14.8 | 0.00 | 0.00 | 0.00 | 44 | 1023.7 |
| 20260901221518 | 79 | 44 | 9.6 | 15.6 | 0.00 | 0.00 | 0.00 | 43 | 1023.6 |
| 20260901220016 | 79 | 108 | 13.0 | 16.5 | 0.00 | 0.00 | 0.00 | 44 | 1023.7 |
| 20260901214526 | 80 | 49 | 12.2 | 18.2 | 0.00 | 0.00 | 0.00 | 44 | 1023.9 |
| 20260901213009 | 80 | 27 | 13.9 | 19.1 | 0.00 | 0.00 | 0.00 | 45 | 1024.0 |
| 20260901211504 | 78 | 89 | 16.5 | 20.0 | 0.00 | 0.00 | 0.00 | 49 | 1024.2 |
| 20260901210004 | 77 | 44 | 14.8 | 22.6 | 0.00 | 0.00 | 0.00 | 48 | 1024.5 |
| 20260901204524 | 78 | 61 | 14.8 | 19.1 | 0.00 | 0.00 | 0.00 | 45 | 1024.5 |
| 20260901203020 | 80 | 63 | 16.5 | 21.7 | 0.00 | 0.00 | 0.00 | 45 | 1024.8 |
| 20260901201514 | 80 | 92 | 17.4 | 26.1 | 0.00 | 0.00 | 0.00 | 42 | 1025.0 |
| 20260901200018 | 84 | 197 | 0.9 | 7.0 | 0.00 | 0.00 | 0.00 | 34 | 1025.0 |
| 20260901194513 | 83 | 354 | 5.2 | 9.6 | 0.00 | 0.00 | 0.00 | 35 | 1025.0 |
| 20260901193030 | 83 | 330 | 3.5 | 11.3 | 0.00 | 0.00 | 0.00 | 35 | 1025.3 |
| 20260901191527 | 82 | 330 | 6.1 | 13.0 | 0.00 | 0.00 | 0.00 | 36 | 1025.5 |
| 20260901190030 | 82 | 342 | 7.8 | 13.0 | 0.00 | 0.00 | 0.00 | 37 | 1025.6 |
| 20260901184520 | 81 | 11 | 5.2 | 9.6 | 0.00 | 0.00 | 0.00 | 39 | 1025.5 |
| 20260901183016 | 81 | 12 | 7.0 | 10.4 | 0.00 | 0.00 | 0.00 | 38 | 1025.6 |
| 20260901181518 | 82 | 28 | 6.1 | 10.4 | 0.00 | 0.00 | 0.00 | 37 | 1025.8 |
| 20260901180033 | 81 | 22 | 1.7 | 13.9 | 0.00 | 0.00 | 0.00 | 37 | 1025.9 |
| 20260901174530 | 80 | 273 | 6.1 | 9.6 | 0.00 | 0.00 | 0.00 | 39 | 1026.2 |
| 20260901173026 | 78 | 271 | 3.5 | 7.0 | 0.00 | 0.00 | 0.00 | 42 | 1026.2 |
| 20260901171523 | 77 | 195 | 4.3 | 8.7 | 0.00 | 0.00 | 0.00 | 43 | 1026.3 |
| 20260901170016 | 77 | 304 | 2.6 | 7.8 | 0.00 | 0.00 | 0.00 | 43 | 1026.3 |
| 20260901164516 | 77 | 302 | 5.2 | 7.8 | 0.00 | 0.00 | 0.00 | 45 | 1026.3 |
| 20260901163037 | 77 | 283 | 4.3 | 8.7 | 0.00 | 0.00 | 0.00 | 44 | 1026.1 |
| 20260901161508 | 79 | 288 | 4.3 | 7.8 | 0.00 | 0.00 | 0.00 | 43 | 1026.0 |
| 20260901160011 | 77 | 267 | 2.6 | 5.2 | 0.00 | 0.00 | 0.00 | 45 | 1025.8 |
| 20260901154505 | 77 | 293 | 1.7 | 5.2 | 0.00 | 0.00 | 0.00 | 46 | 1025.8 |
| 20260901153007 | 78 | 292 | 0.9 | 4.3 | 0.00 | 0.00 | 0.00 | 45 | 1025.9 |
| 20260901151521 | 77 | 322 | 1.7 | 4.3 | 0.00 | 0.00 | 0.00 | 48 | 1025.8 |
| 20260901150012 | 78 | 57 | 0.9 | 1.7 | 0.00 | 0.00 | 0.00 | 46 | 1025.8 |
| 20260901144514 | 74 | 72 | 1.7 | 4.3 | 0.00 | 0.00 | 0.00 | 53 | 1025.8 |
| 20260901143010 | 75 | 82 | 1.7 | 3.5 | 0.00 | 0.00 | 0.00 | 50 | 1025.7 |
| 20260901141509 | 72 | 84 | 2.6 | 4.3 | 0.00 | 0.00 | 0.00 | 56 | 1025.7 |
| 20260901140027 | 69 | 98 | 3.5 | 3.5 | 0.00 | 0.00 | 0.00 | 68 | 1025.9 |
| 20260901134527 | 66 | 60 | 1.7 | 3.5 | 0.00 | 0.00 | 0.00 | 71 | 1025.9 |
| 20260901133018 | 65 | 56 | 3.5 | 5.2 | 0.00 | 0.00 | 0.00 | 70 | 1025.6 |
| 20260901131516 | 62 | 54 | 4.3 | 5.2 | 0.00 | 0.00 | 0.00 | 77 | 1025.6 |
| 20260901130010 | 61 | 41 | 3.5 | 4.3 | 0.00 | 0.00 | 0.00 | 78 | 1025.3 |
| 20260901124512 | 62 | 22 | 4.3 | 4.3 | 0.00 | 0.00 | 0.00 | 76 | 1025.2 |
| 20260901123036 | 63 | 59 | 2.6 | 5.2 | 0.00 | 0.00 | 0.00 | 73 | 1024.9 |
| 20260901121527 | 63 | 77 | 4.3 | 4.3 | 0.00 | 0.00 | 0.00 | 73 | 1024.8 |
| 20260901120023 | 60 | 91 | 2.6 | 4.3 | 0.00 | 0.00 | 0.00 | 78 | 1024.8 |
| 20260901114520 | 60 | 70 | 4.3 | 5.2 | 0.00 | 0.00 | 0.00 | 79 | 1024.6 |
| 20260901113018 | 60 | 44 | 2.6 | 4.3 | 0.00 | 0.00 | 0.00 | 79 | 1024.4 |
| 20260901111511 | 60 | 37 | 4.3 | 7.0 | 0.00 | 0.00 | 0.00 | 80 | 1024.3 |
| 20260901110036 | 59 | 32 | 4.3 | 5.2 | 0.00 | 0.00 | 0.00 | 81 | 1024.1 |
| 20260901104530 | 61 | 40 | 3.5 | 7.0 | 0.00 | 0.00 | 0.00 | 77 | 1024.1 |
| 20260901103026 | 61 | 74 | 4.3 | 6.1 | 0.00 | 0.00 | 0.00 | 78 | 1024.2 |
| 20260901101523 | 62 | 39 | 4.3 | 5.2 | 0.00 | 0.00 | 0.00 | 78 | 1024.3 |
| 20260901100016 | 63 | 54 | 5.2 | 6.1 | 0.00 | 0.00 | 0.00 | 76 | 1024.5 |
| 20260901094515 | 62 | 55 | 5.2 | 6.1 | 0.00 | 0.00 | 0.00 | 79 | 1024.5 |
| 20260901093031 | 62 | 46 | 3.5 | 4.3 | 0.00 | 0.00 | 0.00 | 80 | 1024.5 |
| 20260901091530 | 62 | 85 | 4.3 | 5.2 | 0.00 | 0.00 | 0.00 | 80 | 1024.8 |
| 20260901090025 | 62 | 94 | 2.6 | 3.5 | 0.00 | 0.00 | 0.00 | 79 | 1025.0 |
| 20260901084526 | 63 | 202 | 3.5 | 4.3 | 0.00 | 0.00 | 0.00 | 76 | 1025.0 |
| 20260901083022 | 64 | 210 | 0.9 | 4.3 | 0.00 | 0.00 | 0.00 | 74 | 1025.1 |
| 20260901081534 | 65 | 128 | 0.0 | 0.0 | 0.00 | 0.00 | 0.00 | 67 | 1025.1 |
| 20260901080014 | 66 | 122 | 0.0 | 7.0 | 0.00 | 0.00 | 0.00 | 65 | 1025.0 |
| 20260901074509 | 68 | 86 | 3.5 | 7.0 | 0.00 | 0.00 | 0.00 | 59 | 1025.0 |
| 20260901073008 | 68 | 90 | 7.0 | 8.7 | 0.00 | 0.00 | 0.00 | 59 | 1025.0 |
| 20260901071504 | 69 | 87 | 5.2 | 11.3 | 0.00 | 0.00 | 0.00 | 56 | 1025.0 |
| 20260901070003 | 70 | 138 | 4.3 | 10.4 | 0.00 | 0.00 | 0.00 | 58 | 1025.1 |
| 20260901064504 | 71 | 264 | 3.5 | 10.4 | 0.00 | 0.00 | 0.00 | 54 | 1025.2 |
| 20260901063021 | 71 | 6 | 2.6 | 6.1 | 0.00 | 0.00 | 0.00 | 54 | 1025.1 |
| 20260901061514 | 68 | 166 | 3.5 | 7.0 | 0.00 | 0.00 | 0.00 | 61 | 1025.0 |
| 20260901060013 | 69 | 20 | 4.3 | 6.1 | 0.00 | 0.00 | 0.00 | 60 | 1024.9 |
| 20260901054505 | 71 | 33 | 4.3 | 6.1 | 0.00 | 0.00 | 0.00 | 56 | 1024.6 |
| 20260901053006 | 72 | 65 | 0.0 | 3.5 | 0.00 | 0.00 | 0.00 | 51 | 1024.3 |
| 20260901051510 | 71 | 204 | 0.0 | 8.7 | 0.00 | 0.00 | 0.00 | 53 | 1024.2 |
| 20260901050026 | 69 | 89 | 8.7 | 13.0 | 0.00 | 0.00 | 0.00 | 56 | 1023.7 |
| 20260901044520 | 68 | 70 | 10.4 | 14.8 | 0.00 | 0.00 | 0.00 | 61 | 1023.4 |
| 20260901043012 | 68 | 96 | 10.4 | 18.2 | 0.00 | 0.00 | 0.00 | 58 | 1023.4 |
| 20260901041518 | 69 | 77 | 11.3 | 18.2 | 0.00 | 0.00 | 0.00 | 55 | 1023.6 |
| 20260901040004 | 68 | 55 | 7.8 | 13.9 | 0.00 | 0.00 | 0.00 | 59 | 1023.9 |
| 20260901034504 | 72 | 77 | 8.7 | 14.8 | 0.00 | 0.00 | 0.00 | 54 | 1024.0 |
| 20260901033023 | 77 | 116 | 21.7 | 33.0 | 0.00 | 0.00 | 0.00 | 36 | 1023.4 |
| 20260901031518 | 78 | 57 | 16.5 | 25.2 | 0.00 | 0.00 | 0.00 | 34 | 1022.7 |
| 20260901030013 | 77 | 51 | 16.5 | 24.3 | 0.00 | 0.00 | 0.00 | 38 | 1022.4 |